Location: Unspecified
(0.0000°N, 0.0000°E)
Time: 18:29:41
(UTC+00:00)

deb Briz - Pass Details

Date: 15 February 2026
Orbit: 1949 x 2166 km, 64.8° (Epoch: 6 March)

Event Time Altitude Azimuth Distance (km) Brightness Sun altitude
Rises 19:30:49 0° 230° (SW) 5,423 ? -18.7°
Reaches altitude 10° 19:35:05 10° 243° (WSW) 4,397 ? -19.7°
Maximum altitude 19:43:27 24° 292° (WNW) 3,343 ? -21.8°
Drops below altitude 10° 19:51:49 10° 342° (NNW) 4,353 ? -23.8°
Sets 19:56:08 0° 355° (N) 5,359 ? -24.9°
